Weather History for Marion, OH

Change the Weather History Date:

Friday, January 3, 2014

  Actual Average (KDLZ) Record (KDLZ)
Temperature  
Mean Temperature 2 °F -  
Max Temperature 9 °F 35 °F 59 °F (1939)
Min Temperature -4 °F 18 °F -4 °F (1979)
Degree Days  
Heating Degree Days 62    
Moisture  
Dew Point -3 °F    
Average Humidity 70    
Maximum Humidity 85    
Minimum Humidity 56    
Precipitation  
Precipitation 0.00 in - - ()
Sea Level Pressure  
Sea Level Pressure 30.39 in    
Wind  
Wind Speed 10 mph (WSW)    
Max Wind Speed 15 mph    
Max Gust Speed -    
Visibility 9 miles    
Events Snow    
Averages and records for this station are not official NWS values.
T = Trace of Precipitation, MM = Missing Value Source: NWS Daily Summary

Daily Weather History Graph

Daily Weather History Graph

Search for Another Location

Airport:

Trip Planner

Search our weather history database for the weather conditions in past years. The results will help you decide how hot, cold, wet, or windy it might be!

Date:

Astronomy

Jan. 03, 2014 Rise Set
Actual Time 7:56 AM EST 5:17 PM EST
Civil Twilight 7:25 AM EST 5:48 PM EST
Nautical Twilight 6:51 AM EST 6:22 PM EST
Astronomical Twilight 6:18 AM EST 6:55 PM EST
Moon 9:20 AM EST (1/3) 8:26 PM EST (1/3)
Length of Visible Light 10h 22m
Length of Day
9h 21m
Waxing Crescent, 8% of the Moon is Illuminated
Jan 3
Waxing Crescent
Jan 7
First Quarter
Jan 15
Full
Jan 24
Last Quarter
Jan 30
New

Hourly Weather History & Observations

Time (EST) Temp. Windchill Dew Point Humidity Pressure Visibility Wind Dir Wind Speed Gust Speed Precip Events Conditions
12:06 AM 8.6 °F -8.3 °F 3.2 °F 79% 30.18 in 2.0 mi NNW 15.0 mph - 0.00 in Snow Light Snow
12:22 AM 8.6 °F -7.7 °F 3.2 °F 79% 30.19 in 2.5 mi NNW 13.8 mph - 0.00 in Snow Light Snow
12:30 AM 6.8 °F -10.0 °F 3.2 °F 85% 30.18 in 3.0 mi NNW 13.8 mph - 0.00 in Snow Light Snow
12:53 AM 7.0 °F -10.4 °F 1.9 °F 80% 30.27 in 5.0 mi NNW 15.0 mph - 0.00 in Snow Light Snow
1:53 AM 3.9 °F -11.3 °F -0.9 °F 80% 30.31 in 10.0 mi NNW 10.4 mph - 0.00 in   Partly Cloudy
2:53 AM 1.9 °F -14.7 °F -5.1 °F 72% 30.33 in 10.0 mi NNW 11.5 mph - N/A   Clear
3:53 AM 1.0 °F -14.0 °F -6.0 °F 72% 30.37 in 10.0 mi NNW 9.2 mph - N/A   Clear
4:53 AM -2.0 °F -15.4 °F -9.0 °F 72% 30.39 in 10.0 mi NW 6.9 mph - N/A   Clear
5:53 AM -4.0 °F -14.6 °F -9.0 °F 79% 30.40 in 10.0 mi WNW 4.6 mph - N/A   Clear
6:53 AM -2.9 °F -16.5 °F -9.0 °F 75% 30.44 in 10.0 mi WNW 6.9 mph - N/A   Clear
7:53 AM -4.0 °F -16.3 °F -9.9 °F 76% 30.46 in 10.0 mi West 5.8 mph - N/A   Clear
8:53 AM -2.9 °F -13.3 °F -8.0 °F 79% 30.48 in 10.0 mi WNW 4.6 mph - N/A   Clear
9:53 AM -0.9 °F -8.9 °F -7.1 °F 75% 30.50 in 10.0 mi West 3.5 mph - N/A   Clear
10:53 AM 1.0 °F -8.7 °F -5.1 °F 75% 30.52 in 10.0 mi West 4.6 mph - N/A   Clear
11:53 AM 3.9 °F - -2.9 °F 73% 30.50 in 10.0 mi Calm Calm - N/A   Clear
12:53 PM 6.1 °F -2.8 °F -2.0 °F 69% 30.47 in 10.0 mi South 4.6 mph - N/A   Clear
1:53 PM 8.1 °F -2.0 °F -2.0 °F 64% 30.47 in 10.0 mi South 5.8 mph - N/A   Clear
2:53 PM 8.1 °F -4.3 °F -2.0 °F 64% 30.46 in 10.0 mi SSW 8.1 mph - N/A   Clear
3:53 PM 9.0 °F -3.2 °F -2.9 °F 59% 30.48 in 10.0 mi SSW 8.1 mph - N/A   Clear
4:53 PM 9.0 °F -4.2 °F -4.0 °F 56% 30.46 in 10.0 mi South 9.2 mph - N/A   Clear
5:53 PM 6.1 °F -6.8 °F -5.1 °F 60% 30.45 in 10.0 mi South 8.1 mph - N/A   Clear
6:53 PM 9.0 °F -7.9 °F -4.0 °F 56% 30.43 in 10.0 mi South 15.0 mph - N/A   Overcast
7:53 PM 9.0 °F -5.9 °F -2.9 °F 59% 30.41 in 10.0 mi South 11.5 mph - N/A   Overcast
8:53 PM 9.0 °F -5.9 °F -2.9 °F 59% 30.39 in 10.0 mi South 11.5 mph - N/A   Overcast
9:53 PM 8.1 °F -8.4 °F -2.0 °F 64% 30.35 in 10.0 mi South 13.8 mph - N/A   Clear
10:53 PM 8.1 °F -7.7 °F -2.0 °F 64% 30.34 in 10.0 mi South 12.7 mph - N/A   Clear
11:53 PM 8.1 °F -8.4 °F -2.0 °F 64% 30.31 in 10.0 mi South 13.8 mph - N/A   Clear